Find Starlink 35899

NORAD ID: 66497 Int'l Des: 2025-263 Owner: SPXS Country: US Constellation: starlink operational
LEOCIRCULAR

Current View

Loading 3D Globe...

About Starlink 35899

Starlink 35899 (NORAD 66497) is a starlink constellation satellite (v2 mini) launched Nov 15, 2025 by SPXS of US. It operates in LEO, CIRCULAR orbit with a mass of 575.00 kg.

Upcoming Passes

Passes for default location (London). Set your location on the main map for personalized predictions.

Altitude History

Loading altitude history...

Two-Line Element Set

1 66497U 25263N 26237.07308477 -.00003632 00000-0 -12248-3 0 9992
2 66497 43.0051 119.5204 0001579 291.1173 68.9510 15.27588255 44651
Epoch: Aug 25, 2026 • Age: 18 hours

Current Status

Altitude 487.1 km
Apogee / Perigee N/A
Velocity 7.63 km/s
Sub-Earth Point 42.81°N, 51.29°W
Launch Date Nov 15, 2025
Age 0.7 years
Type internet

Technical Details

Classification Payload
Mass 575.00 kg
Dry Mass 530.00 kg
Total Mass 575.00 kg
Length 0.30 m
Diameter 4.10 m
Span 29.00 m
Shape Box + pan
Manufacturer SPXS
Bus Type Starlink V2MO
Phase Status In Orbit
Owner/State SPXS/US

Most Searched